Location: Unspecified
(0.0000°N, 0.0000°E)
Time: 21:04:50
(UTC+00:00)

STARLINK-1267 - Visible Passes

Search period start: 12 January 2025 00:00
Search period end: 22 January 2025 00:00
Orbit: 546 x 548 km, 53.1° (Epoch: 12 January)

Date Brightness Start Highest point End Pass type
(mag) Time Alt. Az. Time Alt. Az. Time Alt. Az.
13 Jan 5.1 18:55:17 10° NNE 18:57:57 17° NE 18:58:21 17° ENE visible
13 Jan 6.6 20:33:54 10° WNW 20:34:13 12° WNW 20:34:13 12° WNW visible
14 Jan 4.6 18:48:13 10° N 18:51:38 25° NE 18:55:04 10° ESE visible
14 Jan 6.5 20:28:24 10° W 20:30:57 16° SW 20:33:30 10° SSW visible
15 Jan 4.0 18:41:27 10° NNW 18:45:19 39° NE 18:49:12 10° SE visible
15 Jan 7.1 20:24:12 10° WSW 20:24:40 10° SW 20:25:08 10° SW visible
16 Jan 3.6 18:34:57 10° NNW 18:39:00 65° ENE 18:43:05 10° SE visible
19 Jan 7.1 04:42:54 10° SE 04:43:59 11° SE 04:45:04 10° ESE visible
20 Jan 6.6 04:35:02 10° SSE 04:37:44 17° SE 04:40:26 10° E visible
21 Jan 5.9 04:28:01 10° S 04:31:29 26° SE 04:34:55 10° ENE visible
